ASTRA 2F

Last updated on Sun Apr 12 2026 00:02:52 GMT+0000 (Coordinated Universal Time)

1 38778U 12051A 26101.31228284 .00000151 00000+0 00000+0 0 9997 2 38778 0.0499 251.5731 0000910 31.9697 56.5984 1.00272663 40464
UTC large
Height (km)
Speed (km/s)
/
Latitude / Longitude
Inclination (degrees)
Orbital Period (minutes)
Azimuth
Elevation
Range (km)
Doppler Factor

Next 0 passes for location: London (51.5072 / 0.1276)

Sorry there are no passes over London.
ASTRA 2F